Hourly Data Report for October 04, 2017

All times are specified in Local Standard Time (LST). Add 1 hour to adjust for Daylight Saving Time where and when it is observed.

GRETNA (AUT)
MANITOBA

49°01'51.004" N
97°33'36.003" W
252.60 m
5021220
71441
WGN

Download Data

Hourly Data (October 2017)
Hourly Data Report for October 4, 2017
Temp Definition
°C
Dew Point Temp Definition
°C
Rel Hum Definition
%
Wind Dir Definition
10's deg

Wind Spd Definition
km/h
Visibility Definition
km
Stn Press Definition
kPa
Hmdx Definition


Wind Chill Definition


Weather Definition


TIME
00:00 6.9 3.0 76 28 11   99.08     LegendNANA
01:00 8.0 3.5 73 28 14   99.13     LegendNANA
02:00 8.2 2.4 67 27 15   99.17     LegendNANA
03:00 8.0 2.3 67 27 17   99.19     LegendNANA
04:00 7.8 4.0 77 27 17   99.21     LegendNANA
05:00 8.2 4.8 79 28 20   99.24     LegendNANA
06:00 7.8 4.3 79 28 19   99.26     LegendNANA
07:00 7.7 3.6 75 27 23   99.31     LegendNANA
08:00 8.1 3.7 74 27 24   99.32     LegendNANA
09:00 8.7 3.6 70 28 27   99.35     LegendNANA
10:00 9.8 3.1 63 28 34   99.35     LegendNANA
11:00 11.2 3.6 59 27 27   99.32     LegendNANA
12:00 10.9 2.6 57 27 24   99.25     LegendNANA
13:00 11.9 3.2 55 25 24   99.18     LegendNANA
14:00 11.8 2.8 54 26 22   99.13     LegendNANA
15:00 12.0 3.1 54 24 28   99.06     LegendNANA
16:00 12.2 3.0 53 25 28   98.99     LegendNANA
17:00 11.5 3.1 56 25 25   98.95     LegendNANA
18:00 9.4 2.9 64 26 15   98.96     LegendNANA
19:00 7.3 2.2 70 25 15   98.96     LegendNANA
20:00 6.2 2.0 74 25 15   98.98     LegendNANA
21:00 5.2 1.5 77 25 13   98.99     LegendNANA
22:00 5.1 1.4 77 25 14   98.94     LegendNANA
23:00 4.9 1.1 77 25 13   98.93     LegendNANA

Notes on Data Quality.

Legend

  • E = Estimated
  • M = Missing
  • NA = Not Available
  • ‡ = Partner data that is not subject to review by the National Climate Archives
Date modified: